This is the latest recevied weather packets stored in our database for station/object OE-11140. If no packets are shown the sender has not sent any weather packets the latest 10 day(s).
| Time | Temp. | Humidity | Pressure | Rain* | Wind** | Luminosity | Snow |
|---|---|---|---|---|---|---|---|
| 1787975716 | 13.89° C | 87% | 1018.9 hPa | 0 mm | - | 0 W/m² | - |
| 1787975116 | 13.89° C | 84% | 1018.8 hPa | 0 mm | - | 0 W/m² | - |
| 1787974515 | 13.89° C | 84% | 1018.9 hPa | 0 mm | - | 0 W/m² | - |
| 1787973916 | 13.89° C | 85% | 1018.9 hPa | 0 mm | - | 0 W/m² | - |
| 1787973088 | 13.89° C | 85% | 1019.2 hPa | 0 mm | - | 0 W/m² | - |
| 1787972716 | 13.89° C | 88% | 1019.4 hPa | 0 mm | - | 0 W/m² | - |
| 1787972116 | 13.89° C | 89% | 1019.4 hPa | 0 mm | - | 0 W/m² | - |
| 1787971289 | 13.89° C | 85% | 1019.6 hPa | 0 mm | - | 0 W/m² | - |
| 1787970916 | 13.89° C | 85% | 1019.6 hPa | 0 mm | - | 0 W/m² | - |
| 1787970316 | 13.89° C | 86% | 1019.6 hPa | 0 mm | - | 0 W/m² | - |
| 1787969488 | 13.89° C | 87% | 1019.6 hPa | 0 mm | - | 0 W/m² | - |
| 1787969115 | 13.89° C | 88% | 1019.7 hPa | 0 mm | - | 0 W/m² | - |
| 1787968516 | 13.89° C | 84% | 1019.6 hPa | 0 mm | - | 0 W/m² | - |
| 1787967688 | 13.89° C | 85% | 1019.6 hPa | 0 mm | - | 0 W/m² | - |
| 1787967316 | 13.89° C | 86% | 1019.8 hPa | 0 mm | - | 0 W/m² | - |
| 1787966716 | 13.89° C | 89% | 1019.8 hPa | 0 mm | - | 0 W/m² | - |
| 1787965889 | 13.89° C | 88% | 1019.8 hPa | 0 mm | - | 0 W/m² | - |
| 1787964916 | 13.89° C | 90% | 1019.7 hPa | 0 mm | - | 0 W/m² | - |
| 1787964089 | 13.89° C | 92% | 1020 hPa | 0 mm | - | 0 W/m² | - |
| 1787963716 | 13.89° C | 92% | 1020.1 hPa | 0.51 mm | - | 0 W/m² | - |
| 1787963115 | 13.89° C | 90% | 1020.4 hPa | 0.51 mm | - | 0 W/m² | - |
| 1787962288 | 14.44° C | 91% | 1020.5 hPa | 0.51 mm | - | 0 W/m² | - |
| 1787961915 | 14.44° C | 90% | 1020.6 hPa | 0.51 mm | - | 0 W/m² | - |
| 1787961316 | 14.44° C | 90% | 1020.7 hPa | 0.51 mm | - | 0 W/m² | - |
| 1787960489 | 14.44° C | 89% | 1020.7 hPa | 0.76 mm | - | 0 W/m² | - |
* Rain latest hour (hover to see other rain measurements)
** Current wind speed in m/s (hover to see current wind gust speed)